Weather History for KLHW - November, 2013

Change the Weather History Date:

Monday, November 18, 2013

  Actual Average Record
Temperature  
Mean Temperature 73 °F -  
Max Temperature 80 °F 72 °F 85 °F (1978)
Min Temperature 61 °F 49 °F 28 °F (2014)
Cooling Degree Days 8    
Growing Degree Days 23 (Base 50)    
Moisture  
Dew Point 71 °F    
Average Humidity 95    
Maximum Humidity 100    
Minimum Humidity 51    
Precipitation  
Precipitation 0.00 in - - ()
Sea Level Pressure  
Sea Level Pressure 29.93 in    
Wind  
Wind Speed 4 mph (WSW)    
Max Wind Speed 13 mph    
Max Gust Speed -    
Visibility 10 miles    
Events      
Averages and records for this station are not official NWS values.
T = Trace of Precipitation, MM = Missing Value Source: NWS Daily Summary

Daily Weather History Graph

Daily Weather History Graph

Search for Another Location

Airport or City:

Trip Planner

Search our weather history database for the weather conditions in past years. The results will help you decide how hot, cold, wet, or windy it might be!

Date:

Astronomy

Nov. 18, 2013 Rise Set
Actual Time 6:57 AM EST 5:25 PM EST
Civil Twilight 6:31 AM EST 5:51 PM EST
Nautical Twilight 6:01 AM EST 6:20 PM EST
Astronomical Twilight 5:32 AM EST 6:49 PM EST
Moon 6:27 PM EST (11/18) 7:44 AM EST (11/18)
Length of Visible Light 11h 19m
Length of Day
10h 27m
Full, 99% of the Moon is Illuminated
Nov 18
Full
Nov 25
Last Quarter
Dec 2
New
Dec 9
First Quarter
Dec 17
Full

Hourly Weather History & Observations

Time (EST) Temp. Heat Index Dew Point Humidity Pressure Visibility Wind Dir Wind Speed Gust Speed Precip Events Conditions
12:48 AM 68.0 °F - 68.0 °F 100% 29.99 in 10.0 mi Calm Calm - N/A   Overcast
12:58 AM 68.2 °F - 68.2 °F 100% 30.00 in 10.0 mi Calm Calm - N/A   Overcast
1:03 AM 68.0 °F - 68.0 °F 100% 29.99 in 10.0 mi Calm Calm - N/A   Overcast
1:58 AM 70.0 °F - 70.0 °F 100% 29.98 in 10.0 mi NNW 1.2 mph - N/A   Overcast
2:43 AM 69.8 °F - 69.8 °F 100% 29.96 in 10.0 mi SSW 2.3 mph - N/A   Overcast
2:58 AM 69.3 °F - 69.3 °F 100% 29.96 in 10.0 mi SSW 3.5 mph - N/A   Overcast
3:23 AM 69.8 °F - 69.8 °F 100% 29.95 in 10.0 mi Calm Calm - N/A   Overcast
3:58 AM 69.4 °F - 69.4 °F 100% 29.96 in 10.0 mi Calm Calm - N/A   Overcast
4:58 AM 70.2 °F - 70.2 °F 100% 29.94 in 10.0 mi SW 2.3 mph - N/A   Overcast
5:58 AM 70.7 °F - 70.7 °F 100% 29.96 in 10.0 mi WSW 5.8 mph - N/A   Overcast
6:33 AM 71.6 °F - 71.6 °F 100% 29.94 in 10.0 mi SW 5.8 mph - N/A   Overcast
6:48 AM 71.6 °F - 71.6 °F 100% 29.95 in 10.0 mi SW 5.8 mph - N/A   Overcast
6:58 AM 71.1 °F - 71.1 °F 100% 29.96 in 10.0 mi WSW 6.9 mph - N/A   Overcast
7:18 AM 71.6 °F - 71.6 °F 100% 29.95 in 10.0 mi SW 5.8 mph - N/A   Overcast
7:53 AM 71.6 °F - 71.6 °F 100% 29.95 in 10.0 mi SW 4.6 mph - N/A   Scattered Clouds
7:58 AM 71.6 °F - 71.6 °F 100% 29.96 in 10.0 mi SW 4.6 mph - N/A   Mostly Cloudy
8:58 AM 72.5 °F - 72.5 °F 100% 29.97 in 10.0 mi SW 5.8 mph - N/A   Overcast
9:23 AM 73.4 °F - 73.4 °F 100% 29.97 in 10.0 mi WSW 8.1 mph - N/A   Overcast
9:58 AM 74.3 °F - 74.3 °F 100% 29.98 in 10.0 mi WNW 2.3 mph - N/A   Overcast
10:58 AM 75.9 °F - 75.9 °F 100% 29.97 in 10.0 mi WSW 9.2 mph - N/A   Overcast
11:48 AM 78.8 °F - 77.0 °F 94% 29.94 in 10.0 mi WSW 8.1 mph - N/A   Mostly Cloudy
11:53 AM 78.8 °F - 77.0 °F 94% 29.94 in 10.0 mi West 10.4 mph - N/A   Mostly Cloudy
11:58 AM 78.1 °F - 76.6 °F 95% 29.95 in 10.0 mi WSW 8.1 mph - N/A   Mostly Cloudy
12:28 PM 78.8 °F - 77.0 °F 94% 29.92 in 10.0 mi SW 12.7 mph - N/A   Mostly Cloudy
12:38 PM 78.8 °F - 77.0 °F 94% 29.92 in 10.0 mi WSW 11.5 mph - N/A   Mostly Cloudy
12:58 PM 77.9 °F - 76.5 °F 95% 29.93 in 10.0 mi WSW 9.2 mph - N/A   Overcast
1:58 PM 77.5 °F - 76.5 °F 96% 29.91 in 10.0 mi WSW 8.1 mph - N/A   Overcast
2:33 PM 78.8 °F - 77.0 °F 94% 29.89 in 10.0 mi West 10.4 mph - N/A   Mostly Cloudy
2:58 PM 78.1 °F - 76.3 °F 94% 29.89 in 10.0 mi SW 6.9 mph - N/A   Mostly Cloudy
3:58 PM 80.2 °F 85.8 °F 76.1 °F 87% 29.88 in 10.0 mi WSW 8.1 mph - N/A   Partly Cloudy
4:58 PM 77.0 °F - 75.0 °F 94% 29.88 in 10.0 mi SW 4.6 mph - N/A   Clear
5:18 PM 77.0 °F - 75.2 °F 94% 29.87 in 10.0 mi SSW 3.5 mph - N/A   Mostly Cloudy
5:28 PM 75.2 °F - 75.2 °F 100% 29.87 in 10.0 mi SSW 5.8 mph - N/A   Scattered Clouds
5:58 PM 74.3 °F - 74.3 °F 100% 29.89 in 10.0 mi SW 5.8 mph - N/A   Clear
6:58 PM 72.0 °F - 72.0 °F 100% 29.89 in 10.0 mi SW 6.9 mph - N/A   Clear
7:33 PM 71.6 °F - 71.6 °F 100% 29.88 in 10.0 mi SW 10.4 mph - N/A   Mostly Cloudy
7:58 PM 71.8 °F - 71.8 °F 100% 29.90 in 10.0 mi WSW 9.2 mph - N/A   Overcast
8:03 PM 71.6 °F - 71.6 °F 100% 29.89 in 10.0 mi West 9.2 mph - N/A   Overcast
8:11 PM 71.6 °F - 71.6 °F 100% 29.89 in 10.0 mi WSW 6.9 mph - N/A   Overcast
8:23 PM 71.6 °F - 71.6 °F 100% 29.89 in 10.0 mi West 6.9 mph - N/A   Overcast
8:58 PM 72.1 °F - 72.1 °F 100% 29.91 in 10.0 mi West 8.1 mph - N/A   Mostly Cloudy
9:03 PM 71.6 °F - 71.6 °F 100% 29.90 in 10.0 mi West 6.9 mph - N/A   Mostly Cloudy
9:58 PM 70.0 °F - 56.1 °F 61% 29.93 in 10.0 mi NW 8.1 mph - N/A   Clear
10:58 PM 66.2 °F - 47.3 °F 51% 29.95 in 10.0 mi NW 9.2 mph - N/A   Clear
11:58 PM 61.9 °F - 43.7 °F 51% 29.96 in 10.0 mi NW 5.8 mph - N/A   Clear